| time (UTC) | temp F | wind direction | speed MPH | gust MPH | rain 1hr in | rain 24hr in | rain mn in | humidity % | barometer mb |
| 20260510160226 | 79 | 149 | 2.0 | 3.0 | 0.00 | 0.00 | 0.00 | 77 | 1015.4 |
| 20260510155723 | 79 | 188 | 0.0 | 4.0 | 0.00 | 0.00 | 0.00 | 77 | 1015.2 |
| 20260510155218 | 79 | 148 | 2.0 | 3.0 | 0.00 | 0.00 | 0.00 | 78 | 1015.2 |
| 20260510154714 | 78 | 123 | 2.0 | 3.0 | 0.00 | 0.00 | 0.00 | 78 | 1015.1 |
| 20260510154211 | 79 | 57 | 2.0 | 2.0 | 0.00 | 0.00 | 0.00 | 79 | 1015.1 |
| 20260510153705 | 79 | 88 | 1.0 | 2.0 | 0.00 | 0.00 | 0.00 | 79 | 1015.1 |
| 20260510153202 | 78 | 117 | 1.0 | 4.0 | 0.00 | 0.00 | 0.00 | 79 | 1015.0 |
| 20260510152659 | 78 | 99 | 1.0 | 2.0 | 0.00 | 0.00 | 0.00 | 78 | 1014.9 |
| 20260510152155 | 78 | 61 | 0.0 | 2.0 | 0.00 | 0.00 | 0.00 | 80 | 1015.1 |
| 20260510151651 | 78 | 131 | 1.0 | 2.0 | 0.00 | 0.00 | 0.00 | 79 | 1015.1 |
| 20260510151150 | 78 | 57 | 1.0 | 2.0 | 0.00 | 0.00 | 0.00 | 79 | 1015.0 |
| 20260510150645 | 77 | 141 | 2.0 | 2.0 | 0.00 | 0.00 | 0.00 | 80 | 1015.2 |
| 20260510150141 | 77 | 87 | 1.0 | 2.0 | 0.00 | 0.00 | 0.00 | 80 | 1014.9 |
| 20260510145638 | 77 | 126 | 2.0 | 3.0 | 0.00 | 0.00 | 0.00 | 80 | 1015.0 |
| 20260510145134 | 76 | 54 | 2.0 | 2.0 | 0.00 | 0.00 | 0.00 | 81 | 1014.6 |
| 20260510144630 | 76 | 127 | 0.0 | 2.0 | 0.00 | 0.00 | 0.00 | 81 | 1014.9 |
| 20260510144126 | 76 | 112 | 1.0 | 3.0 | 0.00 | 0.00 | 0.00 | 82 | 1014.9 |
| 20260510143622 | 75 | 58 | 1.0 | 3.0 | 0.00 | 0.00 | 0.00 | 83 | 1014.5 |
| 20260510143119 | 75 | 89 | 0.0 | 2.0 | 0.00 | 0.00 | 0.00 | 83 | 1014.6 |
| 20260510142615 | 75 | 113 | 0.0 | 2.0 | 0.00 | 0.00 | 0.00 | 84 | 1014.6 |
| 20260510142112 | 75 | 126 | 0.0 | 2.0 | 0.00 | 0.00 | 0.00 | 84 | 1014.6 |
| 20260510141609 | 74 | 116 | 2.0 | 2.0 | 0.00 | 0.00 | 0.00 | 84 | 1014.4 |
| 20260510141107 | 74 | 121 | 2.0 | 2.0 | 0.00 | 0.00 | 0.00 | 84 | 1014.4 |
| 20260510140603 | 74 | 115 | 2.0 | 2.0 | 0.00 | 0.00 | 0.00 | 85 | 1014.4 |
| 20260510135558 | 73 | 95 | 1.0 | 2.0 | 0.00 | 0.00 | 0.00 | 85 | 1014.3 |
| 20260510135055 | 73 | 39 | 1.0 | 2.0 | 0.00 | 0.00 | 0.00 | 85 | 1014.3 |
| 20260510134552 | 73 | 100 | 2.0 | 2.0 | 0.00 | 0.00 | 0.00 | 86 | 1014.1 |
| 20260510134048 | 73 | 107 | 1.0 | 2.0 | 0.00 | 0.00 | 0.00 | 86 | 1014.0 |
| 20260510133544 | 73 | 127 | 0.0 | 2.0 | 0.00 | 0.00 | 0.00 | 86 | 1013.9 |
| 20260510133040 | 73 | 144 | 2.0 | 2.0 | 0.00 | 0.00 | 0.00 | 87 | 1013.7 |
| 20260510132537 | 72 | 123 | 1.0 | 2.0 | 0.00 | 0.00 | 0.00 | 87 | 1013.9 |
| 20260510132034 | 72 | 73 | 1.0 | 2.0 | 0.00 | 0.00 | 0.00 | 87 | 1013.9 |
| 20260510131532 | 71 | 126 | 0.0 | 2.0 | 0.00 | 0.00 | 0.00 | 88 | 1013.7 |
| 20260510131029 | 71 | 75 | 2.0 | 2.0 | 0.00 | 0.00 | 0.00 | 89 | 1013.6 |
| 20260510130525 | 71 | 65 | 2.0 | 3.0 | 0.00 | 0.00 | 0.00 | 90 | 1013.4 |
| 20260510130023 | 71 | 70 | 2.0 | 2.0 | 0.00 | 0.00 | 0.00 | 90 | 1013.4 |
| 20260510125519 | 71 | 54 | 2.0 | 3.0 | 0.00 | 0.00 | 0.00 | 90 | 1013.4 |
| 20260510125015 | 70 | 56 | 2.0 | 3.0 | 0.00 | 0.00 | 0.00 | 91 | 1013.3 |
| 20260510124512 | 70 | 51 | 2.0 | 2.0 | 0.00 | 0.00 | 0.00 | 91 | 1013.1 |
| 20260510124009 | 70 | 54 | 2.0 | 3.0 | 0.00 | 0.00 | 0.00 | 91 | 1012.8 |
| 20260510123504 | 70 | 37 | 2.0 | 3.0 | 0.00 | 0.00 | 0.00 | 92 | 1013.1 |
| 20260510123000 | 69 | 71 | 2.0 | 2.0 | 0.00 | 0.00 | 0.00 | 92 | 1012.9 |
| 20260510122456 | 69 | 52 | 2.0 | 3.0 | 0.00 | 0.00 | 0.00 | 92 | 1012.8 |
| 20260510121952 | 69 | 53 | 3.0 | 4.0 | 0.00 | 0.00 | 0.00 | 92 | 1012.7 |
| 20260510121450 | 69 | 48 | 3.0 | 4.0 | 0.00 | 0.00 | 0.00 | 92 | 1012.8 |
| 20260510120947 | 69 | 40 | 2.0 | 2.0 | 0.00 | 0.00 | 0.00 | 91 | 1012.7 |
| 20260510120444 | 69 | 77 | 2.0 | 2.0 | 0.00 | 0.00 | 0.00 | 91 | 1012.7 |
| 20260510115940 | 69 | 78 | 2.0 | 3.0 | 0.00 | 0.00 | 0.00 | 91 | 1012.5 |
| 20260510115437 | 69 | 83 | 2.0 | 2.0 | 0.00 | 0.00 | 0.00 | 91 | 1012.5 |
| 20260510114933 | 69 | 94 | 0.0 | 2.0 | 0.00 | 0.00 | 0.00 | 91 | 1012.4 |
| 20260510114430 | 69 | 78 | 0.0 | 2.0 | 0.00 | 0.00 | 0.00 | 90 | 1012.3 |
| 20260510113925 | 70 | 84 | 2.0 | 2.0 | 0.00 | 0.00 | 0.00 | 90 | 1012.3 |
| 20260510113421 | 70 | 78 | 1.0 | 3.0 | 0.00 | 0.00 | 0.00 | 91 | 1012.3 |
| 20260510112919 | 69 | 81 | 1.0 | 2.0 | 0.00 | 0.00 | 0.00 | 90 | 1012.3 |
| 20260510112416 | 69 | 142 | 2.0 | 4.0 | 0.00 | 0.00 | 0.00 | 90 | 1012.2 |
| 20260510111912 | 70 | 72 | 2.0 | 2.0 | 0.00 | 0.00 | 0.00 | 89 | 1012.1 |
| 20260510111408 | 70 | 71 | 1.0 | 2.0 | 0.00 | 0.00 | 0.00 | 90 | 1012.2 |
| 20260510110904 | 70 | 84 | 2.0 | 2.0 | 0.00 | 0.00 | 0.00 | 89 | 1012.2 |
| 20260510110401 | 70 | 88 | 2.0 | 2.0 | 0.00 | 0.00 | 0.00 | 89 | 1012.3 |
| 20260510105857 | 70 | 79 | 3.0 | 3.0 | 0.00 | 0.00 | 0.00 | 89 | 1011.9 |
| 20260510105356 | 70 | 97 | 1.0 | 2.0 | 0.00 | 0.00 | 0.00 | 89 | 1012.0 |
| 20260510104853 | 70 | 74 | 2.0 | 2.0 | 0.00 | 0.00 | 0.00 | 88 | 1012.0 |
| 20260510104350 | 70 | 83 | 2.0 | 2.0 | 0.00 | 0.00 | 0.00 | 87 | 1012.0 |
| 20260510103846 | 71 | 77 | 2.0 | 2.0 | 0.00 | 0.00 | 0.00 | 88 | 1011.8 |
| 20260510103343 | 71 | 86 | 2.0 | 2.0 | 0.00 | 0.00 | 0.00 | 87 | 1011.8 |
| 20260510102839 | 71 | 84 | 2.0 | 3.0 | 0.00 | 0.00 | 0.00 | 87 | 1011.6 |
| 20260510102335 | 71 | 98 | 1.0 | 2.0 | 0.00 | 0.00 | 0.00 | 86 | 1011.4 |
| 20260510101832 | 71 | 102 | 2.0 | 4.0 | 0.00 | 0.00 | 0.00 | 86 | 1011.5 |
| 20260510101331 | 71 | 89 | 0.0 | 3.0 | 0.00 | 0.00 | 0.00 | 86 | 1011.7 |
| 20260510100826 | 71 | 115 | 2.0 | 2.0 | 0.00 | 0.00 | 0.00 | 86 | 1011.4 |
| 20260510100324 | 71 | 83 | 1.0 | 2.0 | 0.00 | 0.00 | 0.00 | 86 | 1011.5 |
| 20260510095820 | 71 | 121 | 1.0 | 2.0 | 0.00 | 0.00 | 0.00 | 86 | 1011.6 |
| 20260510095315 | 71 | 68 | 3.0 | 3.0 | 0.00 | 0.00 | 0.00 | 87 | 1011.6 |
| 20260510094815 | 71 | 76 | 2.0 | 2.0 | 0.00 | 0.00 | 0.00 | 88 | 1011.5 |
| 20260510094310 | 71 | 97 | 2.0 | 2.0 | 0.00 | 0.00 | 0.00 | 87 | 1011.6 |
| 20260510093807 | 71 | 79 | 2.0 | 2.0 | 0.00 | 0.00 | 0.00 | 87 | 1011.3 |
| 20260510093303 | 71 | 115 | 1.0 | 2.0 | 0.00 | 0.00 | 0.00 | 86 | 1011.4 |
| 20260510092759 | 71 | 140 | 1.0 | 2.0 | 0.00 | 0.00 | 0.00 | 86 | 1011.5 |
| 20260510092255 | 71 | 83 | 1.0 | 2.0 | 0.00 | 0.00 | 0.00 | 86 | 1011.3 |
| 20260510091750 | 71 | 108 | 2.0 | 2.0 | 0.00 | 0.00 | 0.00 | 86 | 1011.4 |
| 20260510091248 | 71 | 106 | 1.0 | 2.0 | 0.00 | 0.00 | 0.00 | 85 | 1011.6 |
| 20260510090745 | 71 | 102 | 1.0 | 2.0 | 0.00 | 0.00 | 0.00 | 85 | 1011.6 |
| 20260510090242 | 71 | 104 | 1.0 | 2.0 | 0.00 | 0.00 | 0.00 | 85 | 1011.5 |
| 20260510085737 | 71 | 96 | 0.0 | 2.0 | 0.00 | 0.00 | 0.00 | 85 | 1011.6 |
| 20260510085231 | 71 | 95 | 1.0 | 2.0 | 0.00 | 0.00 | 0.00 | 85 | 1011.6 |
| 20260510084728 | 71 | 93 | 1.0 | 2.0 | 0.00 | 0.00 | 0.00 | 85 | 1011.6 |
| 20260510084225 | 71 | 100 | 2.0 | 2.0 | 0.00 | 0.00 | 0.00 | 84 | 1011.6 |
| 20260510083721 | 71 | 138 | 0.0 | 2.0 | 0.00 | 0.00 | 0.00 | 84 | 1011.6 |
| 20260510083219 | 71 | 99 | 1.0 | 2.0 | 0.00 | 0.00 | 0.00 | 84 | 1011.5 |
| 20260510082714 | 71 | 80 | 1.0 | 2.0 | 0.00 | 0.00 | 0.00 | 84 | 1012.0 |
| 20260510082211 | 71 | 104 | 1.0 | 2.0 | 0.00 | 0.00 | 0.00 | 84 | 1011.8 |
| 20260510081710 | 71 | 92 | 2.0 | 2.0 | 0.00 | 0.00 | 0.00 | 84 | 1011.9 |
| 20260510081207 | 71 | 79 | 1.0 | 2.0 | 0.00 | 0.00 | 0.00 | 83 | 1011.8 |
| 20260510080707 | 71 | 98 | 1.0 | 2.0 | 0.00 | 0.00 | 0.00 | 83 | 1012.0 |
| 20260510080203 | 72 | 93 | 1.0 | 2.0 | 0.00 | 0.00 | 0.00 | 83 | 1012.0 |
| 20260510075700 | 72 | 71 | 2.0 | 2.0 | 0.00 | 0.00 | 0.00 | 83 | 1011.9 |
| 20260510075158 | 72 | 108 | 1.0 | 2.0 | 0.00 | 0.00 | 0.00 | 82 | 1012.0 |
| 20260510074655 | 72 | 102 | 1.0 | 2.0 | 0.00 | 0.00 | 0.00 | 81 | 1011.9 |
| 20260510074150 | 72 | 96 | 1.0 | 2.0 | 0.00 | 0.00 | 0.00 | 81 | 1011.8 |
| 20260510073647 | 72 | 101 | 1.0 | 2.0 | 0.00 | 0.00 | 0.00 | 80 | 1011.8 |
| 20260510073143 | 72 | 113 | 0.0 | 3.0 | 0.00 | 0.00 | 0.00 | 80 | 1011.9 |
| 20260510072639 | 72 | 88 | 0.0 | 2.0 | 0.00 | 0.00 | 0.00 | 80 | 1011.9 |
| 20260510072136 | 73 | 89 | 2.0 | 2.0 | 0.00 | 0.00 | 0.00 | 80 | 1012.1 |
| 20260510071632 | 73 | 68 | 2.0 | 2.0 | 0.00 | 0.00 | 0.00 | 80 | 1012.0 |
| 20260510071130 | 73 | 93 | 2.0 | 2.0 | 0.00 | 0.00 | 0.00 | 80 | 1012.0 |
| 20260510070626 | 73 | 79 | 2.0 | 2.0 | 0.00 | 0.00 | 0.00 | 80 | 1011.9 |
| 20260510070124 | 73 | 88 | 2.0 | 2.0 | 0.00 | 0.00 | 0.00 | 79 | 1012.1 |
| 20260510065620 | 73 | 94 | 1.0 | 2.0 | 0.00 | 0.00 | 0.00 | 79 | 1011.9 |
| 20260510065116 | 73 | 82 | 1.0 | 2.0 | 0.00 | 0.00 | 0.00 | 79 | 1011.9 |
| 20260510064612 | 73 | 94 | 1.0 | 2.0 | 0.00 | 0.00 | 0.00 | 79 | 1011.9 |
| 20260510064109 | 73 | 67 | 1.0 | 2.0 | 0.00 | 0.00 | 0.00 | 78 | 1011.9 |
| 20260510063606 | 73 | 97 | 1.0 | 2.0 | 0.00 | 0.00 | 0.00 | 78 | 1011.9 |
| 20260510063103 | 73 | 87 | 1.0 | 2.0 | 0.00 | 0.00 | 0.00 | 78 | 1011.9 |
| 20260510062559 | 73 | 81 | 1.0 | 2.0 | 0.00 | 0.00 | 0.00 | 78 | 1011.9 |
| 20260510062055 | 73 | 82 | 1.0 | 2.0 | 0.00 | 0.00 | 0.00 | 77 | 1012.0 |
| 20260510061551 | 74 | 80 | 1.0 | 2.0 | 0.00 | 0.00 | 0.00 | 76 | 1011.8 |
| 20260510061048 | 74 | 92 | 1.0 | 2.0 | 0.00 | 0.00 | 0.00 | 76 | 1011.6 |
| 20260510060544 | 74 | 81 | 1.0 | 2.0 | 0.00 | 0.00 | 0.00 | 76 | 1011.6 |
| 20260510060040 | 74 | 88 | 1.0 | 2.0 | 0.00 | 0.00 | 0.00 | 77 | 1011.7 |
| 20260510055537 | 74 | 86 | 1.0 | 2.0 | 0.00 | 0.00 | 0.00 | 76 | 1011.7 |
| 20260510055035 | 74 | 82 | 1.0 | 2.0 | 0.00 | 0.00 | 0.00 | 76 | 1011.9 |
| 20260510054531 | 74 | 64 | 2.0 | 2.0 | 0.00 | 0.00 | 0.00 | 76 | 1011.7 |
| 20260510054026 | 74 | 89 | 1.0 | 2.0 | 0.00 | 0.00 | 0.00 | 77 | 1011.7 |
| 20260510053521 | 74 | 80 | 1.0 | 2.0 | 0.00 | 0.00 | 0.00 | 77 | 1011.8 |
| 20260510053018 | 75 | 88 | 2.0 | 2.0 | 0.00 | 0.00 | 0.00 | 77 | 1011.7 |
| 20260510052514 | 75 | 74 | 1.0 | 2.0 | 0.00 | 0.00 | 0.00 | 77 | 1011.7 |
| 20260510052010 | 75 | 75 | 1.0 | 2.0 | 0.00 | 0.00 | 0.00 | 77 | 1011.9 |
| 20260510051506 | 75 | 86 | 1.0 | 2.0 | 0.00 | 0.00 | 0.00 | 77 | 1011.6 |
| 20260510051002 | 75 | 93 | 2.0 | 2.0 | 0.00 | 0.00 | 0.00 | 77 | 1011.6 |
| 20260510050500 | 75 | 72 | 2.0 | 2.0 | 0.00 | 0.00 | 0.00 | 77 | 1011.7 |
| 20260510045956 | 75 | 79 | 1.0 | 2.0 | 0.00 | 0.02 | 0.02 | 77 | 1011.7 |
| 20260510045454 | 76 | 74 | 1.0 | 1.0 | 0.00 | 0.02 | 0.02 | 78 | 1011.6 |
| 20260510044950 | 76 | 65 | 1.0 | 1.0 | 0.00 | 0.02 | 0.02 | 78 | 1011.7 |
| 20260510044447 | 76 | 99 | 1.0 | 2.0 | 0.00 | 0.02 | 0.02 | 78 | 1011.6 |
| 20260510043944 | 76 | 120 | 0.0 | 1.0 | 0.00 | 0.02 | 0.02 | 78 | 1011.5 |
| 20260510043439 | 76 | 106 | 0.0 | 1.0 | 0.00 | 0.02 | 0.02 | 79 | 1011.7 |
| 20260510042938 | 76 | 79 | 0.0 | 2.0 | 0.00 | 0.02 | 0.02 | 79 | 1011.7 |
| 20260510042434 | 76 | 102 | 1.0 | 1.0 | 0.00 | 0.02 | 0.02 | 78 | 1011.5 |
| 20260510041930 | 76 | 89 | 0.0 | 1.0 | 0.00 | 0.02 | 0.02 | 78 | 1011.6 |
| 20260510041427 | 76 | 95 | 1.0 | 2.0 | 0.00 | 0.02 | 0.02 | 78 | 1011.5 |
| 20260510040925 | 76 | 78 | 1.0 | 2.0 | 0.00 | 0.02 | 0.02 | 78 | 1011.3 |
| 20260510040421 | 77 | 95 | 1.0 | 2.0 | 0.00 | 0.02 | 0.02 | 78 | 1011.4 |
| 20260510035917 | 77 | 89 | 2.0 | 2.0 | 0.00 | 0.02 | 0.02 | 78 | 1011.5 |
| 20260510035414 | 77 | 89 | 1.0 | 1.0 | 0.00 | 0.02 | 0.02 | 78 | 1011.4 |
| 20260510034908 | 77 | 70 | 1.0 | 2.0 | 0.00 | 0.02 | 0.02 | 79 | 1011.5 |
| 20260510034407 | 77 | 89 | 0.0 | 1.0 | 0.00 | 0.02 | 0.02 | 78 | 1011.2 |
| 20260510033908 | 77 | 78 | 1.0 | 1.0 | 0.00 | 0.02 | 0.02 | 78 | 1011.2 |
| 20260510033404 | 77 | 100 | 1.0 | 2.0 | 0.00 | 0.02 | 0.02 | 78 | 1011.1 |
| 20260510032901 | 78 | 106 | 0.0 | 1.0 | 0.00 | 0.02 | 0.02 | 78 | 1011.2 |
| 20260510032358 | 78 | 102 | 0.0 | 1.0 | 0.00 | 0.02 | 0.02 | 78 | 1011.1 |
| 20260510031853 | 78 | 89 | 1.0 | 1.0 | 0.00 | 0.02 | 0.02 | 78 | 1011.0 |
| 20260510031349 | 78 | 112 | 1.0 | 2.0 | 0.00 | 0.02 | 0.02 | 77 | 1011.1 |
| 20260510030849 | 78 | 75 | 1.0 | 2.0 | 0.00 | 0.02 | 0.02 | 77 | 1011.0 |
| 20260510030345 | 79 | 89 | 0.0 | 1.0 | 0.00 | 0.02 | 0.02 | 77 | 1010.9 |
| 20260510025843 | 79 | 82 | 0.0 | 1.0 | 0.00 | 0.02 | 0.02 | 77 | 1010.9 |
| 20260510025340 | 79 | 95 | 1.0 | 1.0 | 0.00 | 0.02 | 0.02 | 77 | 1010.8 |
| 20260510024837 | 79 | 95 | 0.0 | 1.0 | 0.00 | 0.02 | 0.02 | 76 | 1010.8 |
| 20260510024334 | 79 | 57 | 1.0 | 1.0 | 0.00 | 0.02 | 0.02 | 76 | 1010.8 |
| 20260510023830 | 80 | 65 | 0.0 | 1.0 | 0.00 | 0.02 | 0.02 | 75 | 1010.6 |
| 20260510023326 | 80 | 96 | 0.0 | 1.0 | 0.00 | 0.02 | 0.02 | 75 | 1010.4 |
| 20260510022824 | 80 | 88 | 2.0 | 2.0 | 0.00 | 0.02 | 0.02 | 75 | 1010.2 |
| 20260510022323 | 80 | 83 | 2.0 | 2.0 | 0.00 | 0.02 | 0.02 | 75 | 1010.2 |
| 20260510021822 | 80 | 106 | 0.0 | 2.0 | 0.00 | 0.02 | 0.02 | 74 | 1010.4 |
| 20260510021320 | 80 | 109 | 1.0 | 2.0 | 0.00 | 0.02 | 0.02 | 73 | 1010.2 |
| 20260510020816 | 81 | 94 | 0.0 | 2.0 | 0.00 | 0.02 | 0.02 | 73 | 1010.0 |
| 20260510020311 | 80 | 46 | 2.0 | 2.0 | 0.00 | 0.02 | 0.02 | 73 | 1009.9 |
| 20260510015807 | 80 | 89 | 1.0 | 2.0 | 0.00 | 0.02 | 0.02 | 72 | 1010.0 |
| 20260510015306 | 81 | 82 | 1.0 | 2.0 | 0.00 | 0.02 | 0.02 | 72 | 1009.8 |
| 20260510014758 | 81 | 98 | 1.0 | 1.0 | 0.00 | 0.02 | 0.02 | 72 | 1009.7 |
| 20260510014256 | 81 | 94 | 1.0 | 2.0 | 0.00 | 0.02 | 0.02 | 71 | 1009.6 |
| 20260510013752 | 82 | 96 | 0.0 | 1.0 | 0.00 | 0.02 | 0.02 | 69 | 1009.7 |
| 20260510013248 | 82 | 110 | 0.0 | 1.0 | 0.00 | 0.02 | 0.02 | 69 | 1009.6 |
| 20260510012743 | 82 | 60 | 1.0 | 1.0 | 0.00 | 0.02 | 0.02 | 68 | 1009.7 |
| 20260510012238 | 82 | 89 | 0.0 | 1.0 | 0.00 | 0.02 | 0.02 | 67 | 1009.6 |
| 20260510011737 | 83 | 95 | 1.0 | 1.0 | 0.00 | 0.02 | 0.02 | 66 | 1009.5 |
| 20260510011233 | 83 | 77 | 1.0 | 2.0 | 0.00 | 0.02 | 0.02 | 65 | 1009.6 |
| 20260510010730 | 84 | 35 | 2.0 | 2.0 | 0.00 | 0.02 | 0.02 | 64 | 1009.5 |
| 20260510010227 | 84 | 100 | 1.0 | 2.0 | 0.00 | 0.02 | 0.02 | 63 | 1009.4 |
| 20260510005724 | 84 | 95 | 0.0 | 2.0 | 0.00 | 0.02 | 0.02 | 61 | 1009.3 |
| 20260510005220 | 85 | 107 | 1.0 | 2.0 | 0.00 | 0.02 | 0.02 | 60 | 1009.5 |
| 20260510004718 | 85 | 77 | 1.0 | 2.0 | 0.00 | 0.02 | 0.02 | 60 | 1009.3 |
| 20260510004216 | 86 | 89 | 2.0 | 2.0 | 0.00 | 0.02 | 0.02 | 59 | 1009.1 |
| 20260510003713 | 86 | 81 | 0.0 | 2.0 | 0.00 | 0.02 | 0.02 | 59 | 1009.2 |
| 20260510003209 | 86 | 146 | 1.0 | 2.0 | 0.00 | 0.02 | 0.02 | 57 | 1009.3 |
| 20260510002708 | 86 | 81 | 0.0 | 1.0 | 0.00 | 0.02 | 0.02 | 59 | 1009.3 |
| 20260510002206 | 86 | 151 | 1.0 | 2.0 | 0.00 | 0.02 | 0.02 | 58 | 1009.0 |
| 20260510001702 | 87 | 84 | 0.0 | 2.0 | 0.00 | 0.02 | 0.02 | 58 | 1009.1 |
| 20260510001201 | 87 | 137 | 0.0 | 2.0 | 0.00 | 0.02 | 0.02 | 56 | 1009.1 |
| 20260510000656 | 87 | 104 | 0.0 | 2.0 | 0.00 | 0.02 | 0.02 | 52 | 1009.2 |
| 20260510000154 | 87 | 126 | 0.0 | 2.0 | 0.00 | 0.02 | 0.02 | 51 | 1009.0 |
| 20260509235650 | 88 | 67 | 0.0 | 1.0 | 0.00 | 0.02 | 0.02 | 50 | 1008.9 |
| 20260509235147 | 88 | 117 | 0.0 | 1.0 | 0.00 | 0.02 | 0.02 | 47 | 1009.0 |
| 20260509234643 | 88 | 70 | 1.0 | 2.0 | 0.00 | 0.02 | 0.02 | 47 | 1008.9 |
| 20260509234140 | 88 | 160 | 1.0 | 2.0 | 0.00 | 0.02 | 0.02 | 46 | 1008.9 |
| 20260509233638 | 88 | 50 | 0.0 | 2.0 | 0.00 | 0.02 | 0.02 | 47 | 1008.8 |
| 20260509233135 | 88 | 62 | 0.0 | 2.0 | 0.00 | 0.02 | 0.02 | 46 | 1008.9 |
| 20260509232631 | 88 | 137 | 1.0 | 2.0 | 0.00 | 0.02 | 0.02 | 46 | 1008.9 |
| 20260509232128 | 88 | 138 | 1.0 | 1.0 | 0.00 | 0.02 | 0.02 | 45 | 1008.8 |
| 20260509231625 | 88 | 44 | 0.0 | 0.0 | 0.00 | 0.02 | 0.02 | 45 | 1008.7 |
| 20260509231123 | 89 | 113 | 0.0 | 0.0 | 0.00 | 0.02 | 0.02 | 45 | 1008.8 |
| 20260509230619 | 89 | 175 | 0.0 | 2.0 | 0.00 | 0.02 | 0.02 | 45 | 1008.7 |
| 20260509230116 | 89 | 201 | 0.0 | 1.0 | 0.00 | 0.02 | 0.02 | 45 | 1008.7 |
| 20260509225612 | 89 | 85 | 0.0 | 1.0 | 0.00 | 0.02 | 0.02 | 44 | 1008.8 |
| 20260509225108 | 89 | 129 | 0.0 | 1.0 | 0.00 | 0.02 | 0.02 | 44 | 1008.7 |
| 20260509224603 | 89 | 89 | 0.0 | 2.0 | 0.00 | 0.02 | 0.02 | 43 | 1008.9 |
| 20260509224100 | 89 | 32 | 0.0 | 2.0 | 0.00 | 0.02 | 0.02 | 42 | 1008.9 |
| 20260509223557 | 89 | 150 | 0.0 | 1.0 | 0.00 | 0.02 | 0.02 | 43 | 1008.8 |
| 20260509223055 | 89 | 129 | 0.0 | 2.0 | 0.00 | 0.02 | 0.02 | 44 | 1008.8 |
| 20260509222551 | 89 | 142 | 0.0 | 0.0 | 0.00 | 0.02 | 0.02 | 43 | 1008.7 |
| 20260509222047 | 89 | 26 | 0.0 | 2.0 | 0.00 | 0.02 | 0.02 | 44 | 1008.9 |
| 20260509221542 | 89 | 25 | 0.0 | 2.0 | 0.00 | 0.02 | 0.02 | 44 | 1008.9 |
| 20260509221039 | 88 | 74 | 1.0 | 2.0 | 0.00 | 0.02 | 0.02 | 44 | 1008.7 |
| 20260509220535 | 88 | 66 | 1.0 | 2.0 | 0.00 | 0.02 | 0.02 | 44 | 1008.8 |
| 20260509220031 | 89 | 75 | 2.0 | 2.0 | 0.00 | 0.02 | 0.02 | 48 | 1008.8 |
| 20260509215526 | 89 | 48 | 0.0 | 3.0 | 0.00 | 0.02 | 0.02 | 50 | 1008.9 |
| 20260509215024 | 90 | 142 | 0.0 | 1.0 | 0.00 | 0.02 | 0.02 | 52 | 1008.9 |
| 20260509214521 | 89 | 117 | 0.0 | 1.0 | 0.00 | 0.02 | 0.02 | 50 | 1009.0 |
| 20260509214018 | 89 | 166 | 1.0 | 2.0 | 0.00 | 0.02 | 0.02 | 50 | 1009.0 |
| 20260509213514 | 89 | 113 | 0.0 | 3.0 | 0.00 | 0.02 | 0.02 | 49 | 1009.1 |
| 20260509213011 | 89 | 32 | 2.0 | 2.0 | 0.00 | 0.02 | 0.02 | 46 | 1009.2 |
| 20260509212508 | 89 | 242 | 0.0 | 2.0 | 0.00 | 0.02 | 0.02 | 49 | 1009.0 |
| 20260509212005 | 90 | 198 | 2.0 | 3.0 | 0.00 | 0.02 | 0.02 | 49 | 1009.3 |
| 20260509211500 | 90 | 205 | 0.0 | 1.0 | 0.00 | 0.02 | 0.02 | 47 | 1009.2 |
| 20260509210957 | 91 | 121 | 0.0 | 3.0 | 0.00 | 0.02 | 0.02 | 46 | 1009.5 |
| 20260509210454 | 93 | 22 | 1.0 | 4.0 | 0.00 | 0.02 | 0.02 | 41 | 1009.6 |
| 20260509205949 | 94 | 233 | 0.0 | 2.0 | 0.00 | 0.02 | 0.02 | 35 | 1009.5 |
| 20260509205444 | 97 | 11 | 0.0 | 1.0 | 0.00 | 0.02 | 0.02 | 35 | 1009.4 |
| 20260509204941 | 96 | 269 | 0.0 | 1.0 | 0.00 | 0.02 | 0.02 | 33 | 1009.4 |
| 20260509204437 | 96 | 32 | 0.0 | 1.0 | 0.00 | 0.02 | 0.02 | 35 | 1009.5 |
| 20260509203934 | 95 | 180 | 2.0 | 2.0 | 0.00 | 0.02 | 0.02 | 35 | 1009.3 |
| 20260509203429 | 95 | 122 | 0.0 | 2.0 | 0.00 | 0.02 | 0.02 | 35 | 1009.5 |
| 20260509202927 | 94 | 229 | 0.0 | 2.0 | 0.00 | 0.02 | 0.02 | 36 | 1009.6 |
| 20260509202423 | 94 | 150 | 0.0 | 4.0 | 0.00 | 0.02 | 0.02 | 38 | 1009.7 |
| 20260509201918 | 94 | 319 | 0.0 | 1.0 | 0.00 | 0.02 | 0.02 | 38 | 1009.7 |
| 20260509201414 | 93 | 223 | 0.0 | 4.0 | 0.00 | 0.02 | 0.02 | 39 | 1010.0 |
| 20260509200911 | 94 | 187 | 2.0 | 2.0 | 0.00 | 0.02 | 0.02 | 37 | 1010.2 |
| 20260509200411 | 93 | 224 | 0.0 | 2.0 | 0.00 | 0.02 | 0.02 | 37 | 1010.5 |
| 20260509195908 | 92 | 26 | 1.0 | 3.0 | 0.00 | 0.02 | 0.02 | 38 | 1010.5 |
| 20260509195403 | 93 | 174 | 0.0 | 2.0 | 0.00 | 0.02 | 0.02 | 37 | 1010.7 |
| 20260509194902 | 93 | 42 | 2.0 | 2.0 | 0.00 | 0.02 | 0.02 | 39 | 1010.6 |
| 20260509194359 | 90 | 62 | 0.0 | 2.0 | 0.00 | 0.02 | 0.02 | 44 | 1010.7 |
| 20260509193855 | 89 | 249 | 0.0 | 2.0 | 0.00 | 0.02 | 0.02 | 50 | 1010.5 |
| 20260509193355 | 87 | 193 | 1.0 | 2.0 | 0.00 | 0.02 | 0.02 | 54 | 1010.5 |
| 20260509192852 | 89 | 13 | 1.0 | 1.0 | 0.00 | 0.02 | 0.02 | 50 | 1010.4 |
| 20260509192348 | 91 | 127 | 0.0 | 2.0 | 0.00 | 0.02 | 0.02 | 52 | 1010.2 |
| 20260509191843 | 92 | 129 | 0.0 | 1.0 | 0.00 | 0.02 | 0.02 | 51 | 1010.1 |
| 20260509191339 | 91 | 130 | 1.0 | 4.0 | 0.00 | 0.02 | 0.02 | 49 | 1010.4 |
| 20260509190835 | 91 | 29 | 0.0 | 2.0 | 0.00 | 0.02 | 0.02 | 53 | 1010.2 |
| 20260509190333 | 92 | 129 | 0.0 | 2.0 | 0.00 | 0.02 | 0.02 | 51 | 1010.2 |
| 20260509185830 | 91 | 15 | 0.0 | 1.0 | 0.00 | 0.02 | 0.02 | 54 | 1010.1 |
| 20260509185326 | 90 | 164 | 0.0 | 1.0 | 0.00 | 0.02 | 0.02 | 56 | 1010.1 |
| 20260509184824 | 90 | 187 | 2.0 | 2.0 | 0.00 | 0.02 | 0.02 | 56 | 1010.6 |
| 20260509184321 | 91 | 132 | 2.0 | 3.0 | 0.00 | 0.02 | 0.02 | 54 | 1010.5 |
| 20260509183817 | 92 | 47 | 1.0 | 3.0 | 0.00 | 0.02 | 0.02 | 55 | 1010.6 |
| 20260509183312 | 92 | 187 | 1.0 | 2.0 | 0.00 | 0.02 | 0.02 | 55 | 1010.8 |
| 20260509182808 | 91 | 151 | 0.0 | 1.0 | 0.00 | 0.02 | 0.02 | 58 | 1010.8 |
| 20260509182307 | 92 | 17 | 2.0 | 2.0 | 0.00 | 0.02 | 0.02 | 55 | 1010.8 |
| 20260509181802 | 93 | 116 | 1.0 | 2.0 | 0.00 | 0.02 | 0.02 | 53 | 1011.0 |
| 20260509181300 | 93 | 66 | 0.0 | 2.0 | 0.00 | 0.02 | 0.02 | 54 | 1010.9 |
| 20260509180757 | 92 | 45 | 1.0 | 2.0 | 0.00 | 0.02 | 0.02 | 54 | 1011.0 |
| 20260509180253 | 91 | 103 | 1.0 | 4.0 | 0.00 | 0.02 | 0.02 | 56 | 1011.0 |
| 20260509175750 | 91 | 162 | 0.0 | 2.0 | 0.00 | 0.02 | 0.02 | 58 | 1011.2 |
| 20260509175247 | 90 | 132 | 2.0 | 4.0 | 0.00 | 0.02 | 0.02 | 60 | 1011.1 |
| 20260509174742 | 90 | 44 | 2.0 | 3.0 | 0.00 | 0.02 | 0.02 | 59 | 1011.1 |
| 20260509174238 | 91 | 48 | 3.0 | 4.0 | 0.00 | 0.02 | 0.02 | 60 | 1011.2 |
| 20260509173734 | 91 | 123 | 1.0 | 2.0 | 0.00 | 0.02 | 0.02 | 62 | 1011.4 |
| 20260509173230 | 90 | 56 | 1.0 | 2.0 | 0.00 | 0.02 | 0.02 | 60 | 1011.7 |
| 20260509172726 | 88 | 146 | 2.0 | 2.0 | 0.00 | 0.02 | 0.02 | 64 | 1011.8 |
| 20260509172223 | 87 | 95 | 2.0 | 4.0 | 0.00 | 0.02 | 0.02 | 65 | 1011.8 |
| 20260509171718 | 88 | 108 | 3.0 | 4.0 | 0.00 | 0.02 | 0.02 | 64 | 1011.8 |
| 20260509171215 | 87 | 77 | 2.0 | 3.0 | 0.00 | 0.02 | 0.02 | 64 | 1011.6 |
| 20260509170712 | 87 | 110 | 1.0 | 4.0 | 0.00 | 0.02 | 0.02 | 66 | 1011.8 |
| 20260509170207 | 87 | 110 | 1.0 | 2.0 | 0.00 | 0.02 | 0.02 | 66 | 1011.6 |
| 20260509165706 | 86 | 103 | 0.0 | 3.0 | 0.00 | 0.02 | 0.02 | 68 | 1011.8 |
| 20260509165201 | 85 | 102 | 3.0 | 4.0 | 0.00 | 0.02 | 0.02 | 68 | 1011.6 |
| 20260509164658 | 86 | 79 | 2.0 | 3.0 | 0.00 | 0.02 | 0.02 | 68 | 1011.8 |
| 20260509164153 | 84 | 121 | 2.0 | 4.0 | 0.00 | 0.02 | 0.02 | 72 | 1011.9 |
| 20260509163651 | 83 | 128 | 1.0 | 5.0 | 0.00 | 0.02 | 0.02 | 74 | 1011.7 |
| 20260509163147 | 82 | 93 | 3.0 | 3.0 | 0.00 | 0.02 | 0.02 | 76 | 1011.8 |
| 20260509162645 | 81 | 51 | 2.0 | 3.0 | 0.00 | 0.02 | 0.02 | 78 | 1011.8 |
| 20260509162140 | 81 | 87 | 2.0 | 3.0 | 0.00 | 0.02 | 0.02 | 79 | 1011.7 |
| 20260509161637 | 81 | 134 | 1.0 | 4.0 | 0.00 | 0.02 | 0.02 | 79 | 1011.8 |
| 20260509161132 | 80 | 57 | 2.0 | 5.0 | 0.00 | 0.02 | 0.02 | 80 | 1011.7 |